Regional Weather Roundup
Issued by NWS Huntsville, AL

Home | Current Version | Previous Version | Text Only | Print | Product List | Glossary On
Versions: 1 2 3 4 5 6 7 8 9 10 11 12 13 14 15 16 17 18 19 20 21 22 23 24 25 26 27 28 29 30 31 32 33 34 35 36 37 38 39 40 41 42 43 44 45 46 47 48 49 50
000
ASUS44 KHUN 010710
RWRHUN

WEATHER ROUNDUP FOR THE TENNESSEE VALLEY
NATIONAL WEATHER SERVICE HUNTSVILLE AL
200 AM CDT WED JUL 01 2015

ALZ001>004-010800-
NORTHWEST ALABAMA

CITY           SKY/WX    TMP DP  RH WIND       PRES   REMARKS
COURTLAND HCN    N/A     72 N/A N/A S3          N/A
BANKHEAD NF      N/A     70  69  95 NW1         N/A
RUSSELLVILLE     N/A     72 N/A N/A MISG        N/A
SHOALS AIRPORT CLEAR     72  69  90 S6        30.01F
SHOALS TVA RES   N/A     72 N/A N/A MISG        N/A
$$

ALZ005>007-016-010800-
NORTH CENTRAL ALABAMA

CITY           SKY/WX    TMP DP  RH WIND       PRES   REMARKS
CULLMAN AG STN   N/A     70 N/A N/A SW5         N/A
DECATUR AP     CLEAR     72  69  90 SW6       30.01F
HUNTSVILLE AP  CLEAR     73  68  84 S3        30.01F
HUN NWS/UAH      N/A     71  67  85 S1          N/A
MERIDIANVILLE  CLEAR     70  64  83 SW5       30.01F
REDSTONE ARSN  CLEAR     70  68  94 S5        30.00F
VINEMONT AP    FAIR      70  68  94 CALM      30.04F
$$

ALZ008>010-010800-
NORTHEAST ALABAMA

CITY           SKY/WX    TMP DP  RH WIND       PRES   REMARKS
ALBERTVILLE    CLEAR     70  70 100 CALM      30.02F
FORT PAYNE     PTCLDY    68  63  83 CALM      30.03F
SCOTTSBORO AP  CLOUDY    73  68  83 CALM      30.02F
SCOTTSBORO HCN   N/A     72 N/A N/A MISG        N/A
VALLEY HEAD      N/A     68 N/A N/A MISG        N/A
$$

TNZ076-096-097-010800-
SOUTHEASTERN MIDDLE TENNESSEE

CITY           SKY/WX    TMP DP  RH WIND       PRES   REMARKS
TULLAHOMA      PTCLDY    72  68  88 SW12      30.02F
WINCHESTER     CLEAR     72  70  94 W7        30.01F
$$

...SURROUNDING SITES...

CITY           SKY/WX    TMP DP  RH WIND       PRES   REMARKS
ATLANTA        PTCLDY    71  64  78 W10       30.03F
ANNISTON       PTCLDY    69  66  90 CALM      30.02F
BIRMINGHAM     PTCLDY    73  69  87 SW6       30.04F
CHATTANOOGA    PTCLDY    75  67  76 SW9       30.00F
CORINTH        FAIR      72  70  94 SE5       29.98F FOG
DALTON         CLEAR     70  68  94 CALM      30.02S
GADSDEN        CLEAR    N/A N/A N/A CALM      30.00F
GOLDEN TRNGL   CLEAR     70  66  88 SW6       30.01F
HALEYVILLE     FAIR      69  69 100 CALM      30.04F
JACKSON TN     PTCLDY    74  71  91 S7        29.96F
MEMPHIS        PTCLDY    77  74  90 SW8       29.96F
NASHVILLE      PTCLDY    76  73  91 SW6       29.96S
OXFORD MS      FAIR      73  70  88 SW6       30.01F
ROME             N/A    N/A N/A N/A SW3       30.02S
SAVANNAH       PTCLDY    73  32  21 S6        29.99F
TUPELO         CLEAR     74  71  91 W3        29.99F
TUSCALOOSA     MOCLDY    72  70  93 S8        30.04S
$$

...GULF COAST WEATHER...

CITY           SKY/WX    TMP DP  RH WIND       PRES   REMARKS
GULFPORT       CLOUDY    73  68  84 CALM      30.08F
PASCAGOULA     MOCLDY    74  70  87 CALM      30.08F
MOBILE         MOCLDY    73  68  84 W6        30.09F
GULF SHORES    PTSUNNY   78  75  90 W10G16    30.08F
PENSACOLA      PTCLDY    79  74  84 SW5       30.07F THUNDER
DESTIN         PTCLDY    81  77  88 SW7       30.08S
PANAMA CITY    PTCLDY    71  70  96 CALM      30.09S
APPALACHICOLA  MOCLDY    82  74  76 SW7       30.10S
$$




USA.gov is the U.S. government's official web portal to all federal, state and local government web resources and services.